Location: Ku?niki
(51.4449°N, 17.8974°E)
Time: 06:51:26
(UTC+00:00)

Ariane Rocket - Pass Details

Date: 18 September 2020
Orbit: 761 x 769 km, 98.7° (Epoch: 18 October)

Event Time Altitude Azimuth Distance (km) Brightness Sun altitude
Exits shadow 18:09:46 - 158° (SSE) 2,852 5.6 -12.2°
Reaches altitude 10° 18:11:09 10° 157° (SSE) 2,295 5.1 -12.4°
Maximum altitude 18:16:12 78° 72° (ENE) 789 2.9 -13.2°
Drops below altitude 10° 18:21:18 10° 347° (NNW) 2,317 6.0 -13.9°
Sets 18:23:37 0° 346° (NNW) 3,249 6.8 -14.3°
